Погода в Елани

Погода в Елани : погода сейчас, прогноз погоды и архив. Всё, что Вы хотите узнать о погоде в Елани!

Хотите узнать прогноз погоды в Елани? Тогда Вам сюда: Погода в Елани

Поиск расширенной информации на нашем сайте:

Другие новости

Новости СМИ2

Главная страница сайта

Новости сайта

02.10.2013

Напоминаем, что на нашем новом сайте вы можете получить высокодетализированные прогнозы погоды по пунктам России, СНГ и мира (включающие важные для авиации метеовеличины, такие как направление и скорость ветра, видимость, явления погоды, количество и форма облачности, нижняя и верхняя граница облачности), а также ознакомиться с разнообразными материалами по авиационной метеорологии и подборкой полезных ссылок на эту тему.

Сайт Метеоцентр.Азия посвящён разработке технологий оптимизации авиаметеорологического обслуживания, включая проектирование и перспективное создание нескольких автоматизированных авиаметеорологических систем:
- система выпуска высокодетальных прогностических карт явлений погоды для нижнего воздушного пространства по России и ближнему зарубежью;
- система верификации прогнозов TAF (выпускаемых синоптиками официальных АМСГ РФ и ближнего зарубежья) и AUTOTAF (выпускаемых сайтом Метеоцентр.Азия) - выявление ошибок, онлайн-сопоставление с фактической погодой METAR, автоматическое внесение коррективов в прогнозы при резком отклонении фактической погоды от прогноза, подсчёт оправдываемости прогнозов по элементам и в целом;
- система обработки, анализа и отображения авиаметеорологической информации для применения провайдерами метеорологической информации.

Рекомендуем: пластиковый контейнер с крышкой прозрачный для хранения

Погода в Елани - сегодня

Время (UTC), дата Ветер
(°,м/с) 
Видим.   Явления Облачность Т
(°С)
Тd
(°С)
f(%) Тe
(°С)
Pmin
(гПа)
dP
(гПа)
Po
(мм)
O2
(г/м3)
Тmin Tmax R s Состояние
почвы
06 25.05.17 160 (Ю) 20000 м    4/0 верхняя 
[Ci fib]
+19.7 +11.2 58 +24  1017.7  0.3  752  280           
09 25.05.17 170 (Ю) 20000 м    6/4 1000 м верхняя 
[Cu med, cong|Ci fib]
+23.6 +9.5 41 +24  1017.1  -0.4  751  277           
12 25.05.17 190 (Ю) 20000 м    9/8 300 м кучево-дожд., верхняя 
[Cb cap|Ci fib]
+23.5 +9.9 42 +25  1016.1  -1  750  277           
15 25.05.17 250 (З) 20000 м    10/6 600 м кучево-дожд., средняя, верхняя 
[Cb cap|Ac cuf|Ci fib]
+18.1 +10.7 62 +20  1016.7  0.3  751  282    +24.4       
18 25.05.17 330 (СЗ) 20000 м    10/3 1000 м кучево-дожд., верхняя 
[Cb cap|Cc]
+13.8 +10 78 +15  1017.6  0.7  751  286           
21 25.05.17 130 (ЮВ) 20000 м    ясно 
+10.8 +9.6 92 +13  1017.2  -0.5  751  289           
00 26.05.17 160 (Ю) 20000 м    3/0 средняя 
[Ac trans]
+9.5 +8.7 95 +11  1016.9  -0.4  751  291           
03 26.05.17 140 (ЮВ) 20000 м    4/1 1000 м кучево-дожд., верхняя 
[Cb cap|Ci fib]
+11.7 +10 89 +14  1016.4  -0.3  750  288  +8.1        сухая 
06 26.05.17 220 (ЮЗ) 20000 м    5/3 1000 м верхняя 
[Cu med, cong|Ci fib]
+20.2 +11.1 56 +23  1015.3  -0.7  750  279           
09 26.05.17 230 (ЮЗ) 20000 м    8/8 600 м 
[Cu med, cong]
+22.2 +8.1 40 +22  1014.3  -0.8  749  278           
12 26.05.17 270 (З) 20000 м    9/9 300 м кучево-дожд. 
[Cb cap]
+24.1 +9.1 38 +24  1012.2  -1.9  748  275           
18 26.05.17 220 (ЮЗ) 20000 м    8/4 600 м кучево-дожд., верхняя 
[Cb cap|Ci fib]
+14.9 +10.8 76 +18  1012.7  0.1  748  284           
21 26.05.17 190 (Ю) 20000 м    3/0 верхняя 
[Ci fib]
+11.4 +9.9 90 +14  1012  -0.9  747  287           
00 27.05.17 250 (З) 20000 м    4/0 средняя 
[Ac trans]
+10.5 +9.5 94 +13  1011.5  -0.5  747  288           
06 27.05.17 270 (З) 20000 м    8/0 средняя 
[Ac trans]
+20.8 +12.1 57 +25  1010.4  -0.4  746  277           
09 27.05.17 260 (З) 20000 м  гроза без осадков  9/9 300 м кучево-дожд. 
[Cb calv]
+21.9 +10 47 +23  1009.4  -0.9  746  276           
15 27.05.17 240 (ЮЗ) 1{16}  20000 м  в посл. час гроза{ливн. осадки}  8/8 300 м кучево-дожд. 
[Cb cap]
+15 +12.2 83 +20  1010.9  1.9  746  283    +24.7  0.5     
18 27.05.17 300 (СЗ) 20000 м  {гроза, ливн. осадки}  9/9 300 м кучево-дожд. 
[Cb cap]
+14.3 +12.4 88 +19  1011.9  0.9  747  284           
21 27.05.17 330 (СЗ) 20000 м    ясно 
+11.6 +9.6 88 +13  1012.8  0.8  748  287           
00 28.05.17 320 (СЗ) 20000 м    9/0 средняя, верхняя 
[Ac As|Ci fib]
+9.5 +7.3 86 +9  1013.7  0.8  748  290           
06 28.05.17 330 (СЗ) 20000 м    4/0 верхняя 
[Ci fib]
+15.5 +5.7 52 +16  1014.4  749  285           
09 28.05.17 280 (З) 20000 м    9/9 300 м кучево-дожд. 
[Cb cap]
+17.1 +3 39 +17  1013.4  -0.9  748  283           
15 28.05.17 290 (З) 5{14}  10 км  слаб. ливневой дождь  10/10 300 м кучево-дожд. 
[Cb cap]
+11.7 +9.7 88 +12  1012.5  0.7  747  287    +19.2     
21 28.05.17 320 (СЗ) 2{11}  20000 м    ясно 
+4.2 +1.7 84 +4  1019.7  2.7  752  298           
00 29.05.17 290 (З) 20000 м    10/0 верхняя 
[Ci fib]
+1.3 +0.2 92 +1  1021.3  1.4  753  302           
Время (UTC), дата Ветер
(°,м/с) 
Видим.   Явления Облачность Т
(°С)
Тd
(°С)
f(%) Тe
(°С)
Pmin
(гПа)
dP
(гПа)
Po
(мм)
O2
(г/м3)
Тmin Tmax R s Состояние
почвы

Для получения пояснительной информации подведите курсор к названию столбца.

ПОГОДА в Елани - архив

Всё, что Вы хотите узнать о погоде в Елани - удобно и подробно!

Выберите нужную дату (начиная с 1 января 2015* года) и нажмите кнопку "Найти".
Будут отображены архивные сводки погоды по пункту Елань, начиная с указанной даты.


Отображать данные в формате CSV (для использования в таблицах Excel)


Внимание! Наш архив погоды предназначен исключительно для личного некоммерческого использования в познавательных целях. Если Вам необходимы официальные справки о состоянии погоды (для производственных, юридических, коммерческих и т.п. целей), обращайтесь в органы Росгидромета.

*Примечание: данная дата относится к архиву по метеостанциям СССР (Россия, СНГ, Балтия).
Архив по метеостанциям Зарубежной Европы и Азии (кроме Китая) хранится 10 дней, по другим регионам земного шара (Китай, Африка, Америка, Австралия, Океания) - 1 день.

Елань - район местоположения метеостанции


Название, широта, долгота, высота метеостанции:
Елань 50.9°ш. 43.7°д. 132 м над ур. моря [Российская Федерация]

Дополнительная информация

В oтличие oт бoльшинства пoгoдных сайтoв мы публикуем пoдрoбную метеoинфoрмацию в детальнoм прoфессиoнальнoм фoрмате.

Характеристики температуры и влажнoсти вoздуха измеряются на высoте 2 м в тени вдали oт зданий и деревьев.
Скoрoсть ветра измеряется на высoте 10 м (на урoвне рoста челoвека скoрoсть ветра ниже в 1.5-2 раза). Если метеoстанция нахoдится в гoрoде или в лесу, тo скoрoсть ветра занижена на 2-4 м/с пo сравнению с oткрытым местoм. Скoрoсть ветра над акватoриями крупных рек и oзёр, а также на вершинах хoлмoв на 2-5 м/с выше, чем в oбычных услoвиях.
Атмoсфернoе давление в разных тoчках местнoсти мoжет значительнo oтличаться oт давления на метеoстанции, в зависимoсти oт услoвий рельефа (при пoдъёме на 10 м давление пoнижается примернo на 1 мм рт.ст.).